Location: *
(45.0500°N, 12.0500°E)
Time: 10:04:02
(UTC+00:00)

Cosmos-2242 - Pass Details

Date: 09 April 2020
Orbit: 590 x 618 km, 82.5° (Epoch: 06 June)

Event Time Altitude Azimuth Distance (km) Brightness Sun altitude
Exits shadow 20:08:40 31° 50° (NE) 1,070 4.1 -22.7°
Drops below altitude 10° 20:11:23 10° 23° (NNE) 1,974 5.8 -23.1°
Sets 20:13:43 0° 16° (NNE) 2,888 6.8 -23.4°
